• In Russia
  • List of Countries
  • For 7 days
  • Water Temperature
  • Satellite Maps
  • Weather Map
  • Weather Widgets
  • user-avatar
    Login

    Hourly Weather Sharagol

    Today, 14 November, Wednesday

    Time Temperature Precipitation Wind Pressure Humidity
    00:00 -27°C° 0 mm 2 mps 597 mmHg 68%
    01:00 -27°C° 0 mm 2 mps 597 mmHg 69%
    02:00 -27°C° 0 mm 2 mps 597 mmHg 69%
    03:00 -27°C° 0 mm 2 mps 597 mmHg 69%
    04:00 -27°C° 0 mm 2 mps 598 mmHg 69%
    05:00 -27°C° 0 mm 2 mps 598 mmHg 71%
    06:00 -26°C° 0 mm 2 mps 598 mmHg 72%
    07:00 -26°C° 0 mm 2 mps 598 mmHg 73%
    08:00 -25°C° 0 mm 2 mps 599 mmHg 72%
    09:00 -24°C° 0 mm 2 mps 600 mmHg 72%
    10:00 -23°C° 0 mm 2 mps 600 mmHg 72%
    11:00 -21°C° 0 mm 2 mps 600 mmHg 70%
    12:00 -22°C° 0 mm 3 mps 601 mmHg 67%
    13:00 -21°C° 0 mm 3 mps 601 mmHg 65%
    14:00 -22°C° 0 mm 3 mps 600 mmHg 68%
    15:00 -21°C° 0 mm 2 mps 600 mmHg 72%
    16:00 -24°C° 0 mm 2 mps 599 mmHg 75%
    17:00 -24°C° 0 mm 2 mps 599 mmHg 76%
    18:00 -25°C° 0 mm 2 mps 599 mmHg 76%
    19:00 -26°C° 0 mm 2 mps 599 mmHg 77%
    20:00 -26°C° 0 mm 2 mps 600 mmHg 76%
    21:00 -26°C° 0 mm 2 mps 600 mmHg 76%
    22:00 -26°C° 0 mm 2 mps 600 mmHg 75%
    23:00 -25°C° 0 mm 2 mps 600 mmHg 75%

    Tomorrow, 15 November, Thursday

    Time Temperature Precipitation Wind Pressure Humidity
    00:00 -25°C° 0 mm 2 mps 600 mmHg 74%
    01:00 -25°C° 0 mm 2 mps 600 mmHg 74%
    02:00 -25°C° 0 mm 2 mps 600 mmHg 74%
    03:00 -25°C° 0 mm 2 mps 600 mmHg 74%
    04:00 -25°C° 0 mm 2 mps 600 mmHg 73%
    05:00 -24°C° 0 mm 2 mps 600 mmHg 73%
    06:00 -24°C° 0 mm 2 mps 600 mmHg 73%
    07:00 -24°C° 0 mm 2 mps 600 mmHg 73%
    08:00 -21°C° 0 mm 2 mps 601 mmHg 73%
    09:00 -20°C° 0 mm 2 mps 601 mmHg 72%
    10:00 -18°C° 0 mm 2 mps 601 mmHg 71%
    11:00 -17°C° 0 mm 2 mps 601 mmHg 70%
    12:00 -16°C° 0 mm 2 mps 601 mmHg 68%
    13:00 -15°C° 0 mm 2 mps 601 mmHg 67%
    14:00 -16°C° 0 mm 2 mps 600 mmHg 70%
    15:00 -17°C° 0 mm 2 mps 599 mmHg 72%
    16:00 -18°C° 0 mm 2 mps 599 mmHg 75%
    17:00 -18°C° 0 mm 2 mps 598 mmHg 74%
    18:00 -18°C° 0 mm 2 mps 598 mmHg 73%
    19:00 -19°C° 0 mm 3 mps 598 mmHg 72%
    20:00 -19°C° 0 mm 3 mps 598 mmHg 71%
    21:00 -18°C° 0 mm 2 mps 598 mmHg 71%
    22:00 -18°C° 0 mm 2 mps 598 mmHg 70%
    23:00 -18°C° 0 mm 3 mps 598 mmHg 71%

    Day after tomorrow, 16 November, Friday

    Time Temperature Precipitation Wind Pressure Humidity
    00:00 -18°C° 0 mm 3 mps 598 mmHg 73%
    01:00 -18°C° 0 mm 3 mps 598 mmHg 75%
    02:00 -18°C° 0 mm 3 mps 598 mmHg 76%
    03:00 -18°C° 0 mm 3 mps 598 mmHg 78%
    04:00 -18°C° 0 mm 3 mps 597 mmHg 79%
    05:00 -18°C° 0 mm 3 mps 597 mmHg 80%
    06:00 -18°C° 0 mm 3 mps 597 mmHg 81%
    07:00 -19°C° 0 mm 3 mps 597 mmHg 82%
    08:00 -18°C° 0 mm 3 mps 597 mmHg 81%
    09:00 -17°C° 0 mm 3 mps 597 mmHg 80%
    10:00 -16°C° 0 mm 3 mps 598 mmHg 78%
    11:00 -15°C° 0 mm 3 mps 598 mmHg 75%
    12:00 -16°C° 0 mm 4 mps 598 mmHg 72%
    13:00 -15°C° 0 mm 4 mps 597 mmHg 69%
    14:00 -16°C° 0 mm 4 mps 597 mmHg 73%
    15:00 -15°C° 0 mm 3 mps 597 mmHg 76%
    16:00 -16°C° 0 mm 3 mps 596 mmHg 80%
    17:00 -17°C° 0 mm 3 mps 597 mmHg 81%
    18:00 -18°C° 0 mm 3 mps 597 mmHg 83%
    19:00 -18°C° 0 mm 3 mps 597 mmHg 85%
    20:00 -19°C° 0 mm 3 mps 597 mmHg 86%
    21:00 -21°C° 0 mm 3 mps 597 mmHg 86%
    22:00 -22°C° 0 mm 3 mps 597 mmHg 87%
    23:00 -22°C° 0 mm 3 mps 597 mmHg 88%

    17 November, Saturday

    Time Temperature Precipitation Wind Pressure Humidity
    00:00 -23°C° 0 mm 3 mps 597 mmHg 88%
    01:00 -24°C° 0 mm 3 mps 597 mmHg 89%
    02:00 -25°C° 0 mm 3 mps 597 mmHg 88%
    03:00 -24°C° 0 mm 2 mps 597 mmHg 88%
    04:00 -25°C° 0 mm 2 mps 597 mmHg 87%
    05:00 -25°C° 0 mm 2 mps 597 mmHg 85%
    06:00 -26°C° 0 mm 2 mps 597 mmHg 84%
    07:00 -26°C° 0 mm 2 mps 597 mmHg 82%
    08:00 -25°C° 0 mm 2 mps 597 mmHg 79%
    09:00 -24°C° 0 mm 2 mps 598 mmHg 77%
    10:00 -21°C° 0 mm 2 mps 598 mmHg 74%
    11:00 -23°C° 0 mm 3 mps 598 mmHg 72%
    12:00 -22°C° 0 mm 3 mps 598 mmHg 69%
    13:00 -22°C° 0 mm 4 mps 598 mmHg 66%
    14:00 -22°C° 0 mm 3 mps 597 mmHg 69%
    15:00 -23°C° 0 mm 3 mps 597 mmHg 73%
    16:00 -24°C° 0 mm 2 mps 596 mmHg 77%
    17:00 -24°C° 0 mm 2 mps 596 mmHg 79%
    18:00 -25°C° 0 mm 2 mps 596 mmHg 80%
    19:00 -26°C° 0 mm 2 mps 595 mmHg 81%
    20:00 -24°C° 0 mm 1 mps 595 mmHg 82%
    21:00 -24°C° 0 mm 1 mps 595 mmHg 82%
    22:00 -24°C° 0 mm 1 mps 595 mmHg 83%
    23:00 -24°C° 0 mm 1 mps 595 mmHg 83%

    18 November, Sunday

    Time Temperature Precipitation Wind Pressure Humidity
    00:00 -24°C° 0 mm 1 mps 595 mmHg 83%
    01:00 -24°C° 0 mm 1 mps 595 mmHg 82%
    02:00 -24°C° 0 mm 1 mps 595 mmHg 82%
    03:00 -24°C° 0 mm 1 mps 594 mmHg 82%
    04:00 -27°C° 0 mm 2 mps 594 mmHg 82%
    05:00 -28°C° 0 mm 2 mps 594 mmHg 81%
    06:00 -28°C° 0 mm 2 mps 594 mmHg 80%
    07:00 -28°C° 0 mm 2 mps 594 mmHg 80%
    08:00 -27°C° 0 mm 2 mps 595 mmHg 78%
    09:00 -25°C° 0 mm 2 mps 595 mmHg 76%
    10:00 -21°C° 0 mm 1 mps 596 mmHg 74%
    11:00 -23°C° 0 mm 2 mps 596 mmHg 71%
    12:00 -21°C° 0 mm 2 mps 596 mmHg 68%
    13:00 -20°C° 0 mm 2 mps 596 mmHg 65%
    14:00 -21°C° 0 mm 2 mps 596 mmHg 68%
    15:00 -23°C° 0 mm 2 mps 595 mmHg 71%
    16:00 -24°C° 0 mm 2 mps 594 mmHg 73%
    17:00 -24°C° 0 mm 2 mps 594 mmHg 72%
    18:00 -24°C° 0 mm 2 mps 594 mmHg 70%
    19:00 -25°C° 0 mm 2 mps 594 mmHg 68%
    20:00 -25°C° 0 mm 2 mps 594 mmHg 66%
    21:00 -25°C° 0 mm 2 mps 594 mmHg 63%
    22:00 -25°C° 0 mm 2 mps 594 mmHg 61%
    23:00 -25°C° 0 mm 2 mps 594 mmHg 59%

    19 November, Monday

    Time Temperature Precipitation Wind Pressure Humidity
    00:00 -25°C° 0 mm 2 mps 594 mmHg 57%
    01:00 -25°C° 0 mm 2 mps 594 mmHg 54%
    02:00 -25°C° 0 mm 2 mps 594 mmHg 57%
    03:00 -25°C° 0 mm 2 mps 594 mmHg 59%
    04:00 -24°C° 0 mm 2 mps 593 mmHg 61%
    05:00 -24°C° 0 mm 2 mps 594 mmHg 64%
    06:00 -24°C° 0 mm 2 mps 594 mmHg 67%
    07:00 -24°C° 0 mm 2 mps 594 mmHg 70%
    08:00 -23°C° 0 mm 2 mps 594 mmHg 71%
    09:00 -21°C° 0 mm 2 mps 595 mmHg 72%
    10:00 -20°C° 0 mm 2 mps 595 mmHg 73%
    11:00 -18°C° 0 mm 2 mps 595 mmHg 72%
    12:00 -17°C° 0 mm 2 mps 595 mmHg 70%
    13:00 -16°C° 0 mm 2 mps 595 mmHg 68%
    14:00 -17°C° 0 mm 2 mps 595 mmHg 71%
    15:00 -19°C° 0 mm 2 mps 594 mmHg 74%
    16:00 -20°C° 0 mm 2 mps 593 mmHg 77%
    17:00 -21°C° 0 mm 2 mps 593 mmHg 77%
    18:00 -21°C° 0 mm 2 mps 593 mmHg 76%
    19:00 -23°C° 0 mm 2 mps 593 mmHg 76%
    20:00 -23°C° 0 mm 2 mps 593 mmHg 76%
    21:00 -21°C° 0 mm 2 mps 593 mmHg 76%
    22:00 -21°C° 0 mm 2 mps 593 mmHg 76%
    23:00 -21°C° 0 mm 2 mps 593 mmHg 77%
    Show more